Tracking 31027 objects as of 19-Jul-2025
HD Live streaming from Space Station
objects crossing your sky now

SYRACUSE 4A

Track SYRACUSE 4A now!


NORAD ID: 49333
Int'l Code: 2021-095B
Perigee: 35,788.7 km
Apogee: 35,801.4 km
Inclination: 0.0 °
Period: 1,436.2 minutes
Semi major axis: 42166 km
RCS: Unknown
Launch date: October 24, 2021
Source: France (FR)
Launch site: FRENCH GUIANA (FRGUI)
Your satellite tracking list
HAWK-4A
Track 1 satellite(s)




NASA's NSSDC Master Catalog

Two Line Element Set (TLE):
1 49333U 21095B   25199.28026965  .00000142  00000-0  00000-0 0  9990
2 49333   0.0221  49.7881 0001495  64.1115 328.8264  1.00267122 14608
Source of the keplerian elements: AFSPC